Tracking 19242 objects as of 18-Sep-2018
HD Live streaming from Space Station
objects crossing your sky now

METEOR 1-23

Track METEOR 1-23 now!
10-day predictions
METEOR 1-23 is classified as:


NORAD ID: 8519
Int'l Code: 1975-124A
Perigee: 853.5 km
Apogee: 874.1 km
Inclination: 81.2 °
Period: 102.1 minutes
Semi major axis: 7234 km
RCS: 4.3645 m2 (large)
Launch date: December 25, 1975
Source: Commonwealth of Independent States (former USSR) (CIS)
Launch site: PLESETSK MISSILE AND SPACE COMPLEX (PKMTR)
aabbcc
Your satellite tracking list
Your tracking list is empty




NASA's NSSDC Master Catalog

Two Line Element Set (TLE):
1 08519U 75124A   18260.83729555  .00000026  00000-0  73486-5 0  9994
2 08519  81.2468   2.7449 0014248  65.9001 294.3659 14.10788041198178
Source of the keplerian elements: AFSPC